Temp
1 0 0 0 -0 -0 -1 -1 -3 -4 -7 -7 -7 -7 -8 -8 -8 -8 -8 -8 -8 -8 -7 -7 -7 -6 -7 -5 -4 -3 -1 -1 -1 -1 1 1 1 0 1 2 2 3 2 3 4 4 5
0 0 0 1 -0 -0 -1 -1 -3 -5 -7 -7 -7 -7 -8 -8 -8 -8 -8 -8 -8 -8 -8 -8 -7 -7 -7 -5 -4 -3 -2 -1 -1 -1 0 0 0 -1 -2 -0 1 1 1 3 3 4 4
-0 -0 0 0 -0 -0 -0 -2 -3 -5 -7 -7 -7 -7 -8 -8 -8 -8 -8 -8 -8 -8 -8 -8 -8 -7 -6 -5 -4 -3 -2 -1 -2 -1 -0 0 0 -1 -0 -1 0 -0 1 2 3 3 3
-0 -0 -0 -0 0 -0 -1 -2 -2 -5 -7 -7 -7 -8 -8 -8 -8 -7 -8 -8 -8 -8 -8 -8 -8 -8 -6 -5 -5 -3 -3 -2 -2 -1 -1 -1 -1 -3 -1 -1 -0 -1 0 0 3 3 3
-0 -0 -0 -0 0 -1 -0 -1 -2 -5 -6 -7 -7 -7 -8 -8 -7 -7 -7 -8 -8 -8 -8 -8 -8 -8 -7 -5 -4 -3 -3 -3 -2 -1 -1 -1 -2 -2 -1 -1 -1 -1 1 1 1 3 2
-0 -0 -0 -0 0 0 -0 -1 -3 -4 -6 -7 -7 -7 -8 -8 -7 -7 -7 -8 -8 -8 -8 -8 -8 -8 -6 -5 -4 -3 -3 -2 -2 -2 -2 -2 -2 -2 -2 -1 0 0 1 0 1 2 2
-0 -1 -0 -1 0 1 -1 -1 -2 -5 -7 -7 -7 -7 -7 -7 -8 -8 -8 -8 -9 -9 -9 -8 -8 -7 -6 -4 -4 -3 -2 -2 -2 -2 -3 -2 -1 -2 -1 -1 -0 -0 -0 1 2 1 2
-1 -1 -1 -0 -0 0 -1 -1 -2 -4 -5 -7 -7 -7 -7 -8 -8 -8 -8 -9 -9 -9 -8 -8 -7 -7 -5 -4 -4 -3 -3 -2 -3 -3 -3 -2 -3 -2 -1 -2 -1 -1 0 0 1 1 1
-1 -1 -1 -0 -0 0 -1 -1 -1 -3 -4 -5 -6 -7 -7 -7 -7 -8 -8 -8 -8 -8 -8 -7 -6 -6 -5 -4 -4 -3 -3 -2 -2 -3 -2 -2 -2 -2 -1 -2 -1 -1 -0 0 0 1 0
-2 -1 -2 -0 -0 0 -1 -1 -1 -2 -4 -5 -5 -5 -5 -6 -6 -7 -8 -8 -8 -7 -7 -6 -5 -4 -5 -4 -4 -3 -3 -2 -2 -2 -2 -2 -2 -1 -2 -2 -1 -1 -1 -0 0 0 2
-2 -1 -2 -1 -0 -0 -1 -1 -1 -2 -3 -5 -5 -5 -4 -4 -5 -6 -5 -6 -6 -6 -4 -5 -4 -4 -5 -4 -3 -3 -2 -3 -2 -2 -2 -2 -2 -2 -2 -1 -1 -1 -1 -0 -1 -0 0
-2 -2 -2 -1 -0 -0 -0 -1 -1 -1 -2 -3 -2 -3 -3 -4 -4 -3 -4 -4 -5 -5 -4 -4 -4 -4 -3 -4 -4 -3 -3 -2 -2 -2 -2 -2 -2 -1 -1 -2 -2 -1 -1 -1 -1 -1 0
-2 -2 -2 -2 -1 -0 -0 -1 -2 -1 -1 -2 -2 -2 -2 -3 -3 -2 -3 -3 -4 -4 -5 -4 -4 -4 -4 -3 -3 -3 -3 -2 -2 -3 -3 -2 -2 -2 -1 -2 -2 -2 -2 -1 -0 -1 2
-2 -2 -2 -2 -1 -0 -0 -0 -1 -1 -1 -1 -1 -2 -2 -2 -2 -2 -2 -2 -4 -4 -4 -4 -4 -4 -3 -4 -3 -3 -3 -2 -2 -2 -2 -3 -3 -2 -2 -2 -2 -2 -2 1 2 1 2
-3 -3 -2 -2 -2 -1 -0 -0 -0 -1 -1 -1 -1 -1 -1 -2 -2 -2 -1 -2 -4 -4 -4 -4 -4 -4 -4 -3 -3 -3 -2 -2 -2 -1 -1 -2 -3 -3 -3 -2 -2 -2 -2 -1 -1 -2 -1
-3 -3 -2 -2 -2 -2 -1 -0 -0 0 -0 -0 -0 -1 -1 -1 -2 -1 -1 -4 -4 -4 -4 -4 -3 -3 -4 -3 -2 -3 -3 -3 -2 -2 -1 -2 -3 -3 -3 -3 -3 -2 -1 -2 -1 -0 2
-3 -3 -3 -2 -2 -2 -2 -1 -0 -0 0 0 -0 -0 -1 -1 -1 -1 -2 -4 -4 -4 -4 -3 -3 -3 -3 -3 -2 -3 -3 -2 -2 -2 -1 -1 -2 -3 -3 -3 -3 -2 -3 -2 -2 -2 2
-3 -3 -3 -2 -1 -2 -3 -2 -0 -1 -0 0 0 -0 -1 -1 -2 -1 -4 -4 -4 -4 -3 -3 -3 -3 -2 -3 -3 -3 -3 -2 -2 -2 -2 -2 -2 -4 -4 -3 -3 -3 -3 -2 -0 -3 -3
-3 -3 -3 -3 -3 -2 -2 -3 -1 -1 -1 0 0 -0 -1 -1 -1 -1 -3 -4 -4 -3 -3 -3 -3 -3 -2 -3 -3 -3 -3 -2 -3 -3 -2 -2 -2 -4 -5 -4 -3 -3 -3 -3 -2 -2 -2
-3 -3 -3 -4 -4 -3 -3 -4 -3 -1 -1 -0 -0 -0 -1 -1 -1 -2 -2 -3 -3 -3 -3 -3 -3 -3 -3 -3 -3 -3 -3 -3 -3 -3 -3 -3 -2 -2 -1 -2 -2 -3 -3 -3 -3 -3 -2
-3 -4 -4 -4 -5 -4 -4 -4 -3 -2 -2 -1 -1 -1 -1 -1 -1 -2 -2 -2 -3 -3 -3 -3 -3 -3 -3 -3 -3 -3 -3 -3 -3 -3 -4 -3 -3 -3 -3 -3 -3 -3 -3 -3 -3 -3 -2
-4 -4 -5 -5 -4 -5 -4 -4 -4 -3 -2 -2 -1 -2 -1 -1 -2 -2 -2 -3 -2 -3 -3 -3 -3 -3 -3 -3 -3 -3 -3 -3 -3 -3 -3 -4 -3 -3 -3 -3 -3 -3 -3 -3 -3 -3 -3
-5 -5 -5 -5 -5 -5 -5 -4 -4 -4 -3 -3 -2 -2 -2 -1 -2 -2 -2 -2 -3 -3 -3 -3 -4 -4 -3 -3 -3 -3 -4 -4 -4 -3 -4 -4 -4 -4 -3 -3 -3 -3 -1 -1 -1 -1 -1
-5 -5 -6 -6 -6 -5 -5 -6 -5 -5 -4 -3 -3 -2 -3 -2 -2 -2 -2 -2 -2 -3 -3 -3 -4 -4 -4 -4 -4 -4 -4 -4 -4 -4 -4 -4 -4 -4 -5 -4 -3 -1 -1 -2 -1 -1 -1
-5 -5 -6 -6 -6 -7 -6 -7 -6 -6 -5 -4 -4 -3 -3 -3 -2 -2 -2 -2 -2 -3 -3 -3 -4 -4 -4 -4 -4 -4 -4 -4 -4 -4 -4 -4 -4 -4 -5 -4 -3 -1 -1 -1 -1 -1 -1
-5 -6 -6 -6 -6 -7 -7 -7 -7 -7 -6 -5 -5 -4 -4 -3 -3 -3 -3 -3 -3 -3 -3 -3 -4 -4 -4 -4 -4 -4 -4 -4 -4 -4 -4 -4 -4 -4 -5 -5 -2 -2 -1 -1 -1 -2 -1
-5 -6 -6 -6 -7 -7 -7 -8 -8 -8 -8 -6 -6 -5 -5 -4 -4 -3 -3 -3 -3 -3 -3 -3 -3 -4 -4 -4 -4 -4 -4 -4 -4 -5 -5 -5 -5 -5 -4 -4 -3 -2 -2 -2 -2 -2 -1
-5 -6 -6 -6 -7 -7 -8 -8 -9 -8 -8 -8 -7 -6 -6 -5 -5 -4 -4 -4 -4 -4 -4 -4 -4 -4 -4 -4 -4 -4 -4 -4 -4 -4 -4 -5 -5 -4 -4 -4 -4 -2 -2 -2 -2 -2 -2
-6 -7 -7 -6 -7 -8 -9 -9 -9 -8 -8 -8 -8 -8 -7 -6 -5 -5 -4 -4 -4 -4 -4 -4 -4 -4 -4 -4 -4 -4 -4 -4 -4 -4 -4 -4 -3 -4 -3 -3 -2 -2 -2 -3 -2 -2 -2
Height
3108 3100 3094 3087 3079 3072 3064 3055 3047 3039 3033 3028 3022 3017 3012 3010 3008 3007 3005 3005 3004 3004 3005 3006 3008 3010 3015 3019 3029 3036 3043 3049 3055 3059 3065 3071 3076 3082 3087 3092 3097 3102 3104 3110 3114 3119 3121
3105 3097 3091 3083 3075 3068 3060 3050 3041 3034 3028 3022 3017 3011 3008 3005 3004 3003 3003 3001 3000 2999 3000 3001 3002 3005 3010 3015 3023 3031 3039 3044 3049 3054 3060 3068 3073 3080 3086 3089 3094 3099 3102 3107 3112 3115 3117
3102 3095 3088 3080 3072 3064 3056 3046 3038 3031 3023 3018 3013 3007 3003 3001 3000 3000 3000 2998 2999 2997 2997 2997 2998 3000 3004 3011 3019 3029 3034 3040 3046 3052 3058 3066 3072 3078 3081 3086 3091 3096 3101 3106 3107 3111 3113
3099 3092 3086 3078 3069 3062 3054 3045 3037 3027 3021 3014 3008 3002 2998 2997 2997 2997 2996 2996 2996 2995 2994 2994 2994 2998 2999 3007 3016 3025 3032 3037 3044 3052 3059 3066 3072 3078 3081 3085 3090 3095 3100 3103 3104 3106 3108
3098 3092 3084 3076 3067 3060 3052 3044 3035 3026 3019 3011 3002 2996 2991 2991 2993 2993 2993 2993 2993 2992 2991 2992 2994 2996 2999 3005 3015 3022 3031 3037 3042 3050 3057 3065 3070 3074 3078 3083 3088 3092 3094 3098 3100 3101 3105
3097 3091 3083 3075 3067 3059 3051 3044 3034 3026 3017 3007 2999 2992 2987 2987 2988 2989 2990 2990 2990 2989 2989 2991 2994 2998 2999 3005 3014 3022 3030 3037 3041 3048 3056 3062 3066 3070 3076 3080 3079 3082 3090 3093 3096 3097 3099
3095 3089 3082 3075 3067 3059 3053 3046 3036 3024 3016 3005 2997 2989 2984 2982 2983 2985 2987 2988 2991 2989 2988 2991 2993 2995 3001 3008 3014 3021 3028 3034 3041 3046 3049 3055 3060 3062 3068 3076 3081 3083 3087 3091 3092 3093 3096
3095 3088 3082 3074 3066 3060 3053 3047 3035 3027 3019 3008 2999 2991 2985 2982 2982 2982 2984 2986 2987 2989 2989 2990 2990 2997 3001 3006 3013 3021 3027 3023 3034 3040 3049 3055 3057 3064 3070 3076 3079 3081 3085 3089 3089 3091 3094
3093 3087 3082 3075 3067 3061 3055 3048 3038 3032 3023 3014 3004 2995 2988 2985 2983 2982 2984 2986 2987 2988 2989 2992 2996 3001 3006 3013 3017 3022 3024 3024 3033 3041 3045 3052 3058 3062 3068 3074 3078 3081 3083 3084 3088 3090 3091
3092 3086 3081 3075 3068 3063 3056 3050 3042 3036 3029 3021 3014 3005 2998 2992 2990 2987 2988 2990 2991 2992 2992 3001 3003 3005 3010 3014 3020 3023 3025 3028 3028 3039 3047 3052 3056 3061 3067 3072 3078 3080 3080 3083 3086 3090 3090
3090 3084 3080 3076 3070 3064 3057 3052 3045 3039 3034 3027 3021 3016 3011 3005 3000 2999 3000 2999 2998 2996 2996 3003 3004 3008 3013 3019 3023 3026 3025 3028 3033 3037 3043 3048 3055 3060 3065 3070 3075 3078 3080 3082 3084 3087 3088
3090 3084 3078 3074 3070 3064 3059 3053 3048 3042 3037 3031 3025 3021 3017 3012 3008 3005 3003 3001 3000 3002 3002 3008 3011 3014 3018 3021 3026 3028 3028 3032 3036 3038 3042 3049 3052 3058 3062 3065 3071 3075 3078 3082 3084 3086 3086
3089 3083 3077 3073 3069 3065 3061 3054 3049 3045 3040 3033 3028 3023 3019 3014 3013 3009 3007 3005 3005 3008 3015 3017 3018 3020 3022 3024 3027 3032 3035 3037 3039 3042 3043 3046 3053 3054 3058 3064 3069 3072 3077 3082 3084 3084 3077
3087 3081 3076 3071 3067 3064 3060 3056 3051 3046 3042 3035 3030 3025 3022 3017 3015 3013 3011 3010 3009 3017 3016 3020 3022 3024 3025 3029 3033 3034 3037 3040 3042 3044 3046 3050 3057 3055 3057 3061 3064 3070 3073 3073 3071 3074 3074
3085 3079 3074 3070 3065 3062 3059 3056 3052 3047 3043 3038 3033 3029 3026 3022 3019 3017 3016 3012 3019 3021 3024 3025 3027 3029 3030 3032 3035 3038 3040 3043 3044 3046 3050 3052 3056 3057 3059 3062 3064 3067 3070 3072 3074 3075 3075
3082 3076 3072 3069 3064 3060 3057 3054 3052 3048 3044 3041 3036 3031 3028 3025 3023 3021 3019 3018 3022 3025 3027 3029 3029 3030 3032 3034 3037 3039 3043 3045 3046 3048 3049 3051 3056 3059 3061 3063 3065 3066 3069 3073 3073 3073 3068
3079 3074 3070 3067 3063 3059 3056 3052 3049 3047 3044 3041 3039 3035 3030 3028 3027 3026 3022 3024 3027 3029 3030 3031 3030 3030 3032 3034 3036 3039 3042 3045 3046 3048 3050 3051 3054 3061 3062 3063 3064 3066 3067 3068 3070 3070 3066
3076 3072 3067 3064 3061 3057 3053 3051 3047 3045 3043 3041 3038 3037 3033 3031 3031 3028 3029 3029 3030 3032 3033 3032 3032 3032 3033 3035 3037 3039 3041 3044 3046 3048 3050 3052 3054 3058 3060 3060 3061 3062 3064 3066 3066 3068 3067
3072 3069 3065 3061 3057 3053 3050 3047 3046 3042 3041 3039 3037 3036 3035 3032 3032 3031 3032 3031 3032 3033 3033 3033 3033 3033 3034 3036 3039 3040 3041 3043 3045 3047 3049 3051 3053 3056 3059 3062 3060 3059 3060 3062 3063 3063 3064
3069 3065 3061 3057 3055 3052 3047 3044 3042 3039 3038 3038 3036 3036 3035 3034 3032 3032 3033 3033 3034 3034 3034 3034 3034 3035 3036 3037 3038 3039 3041 3043 3045 3047 3048 3050 3050 3051 3053 3053 3053 3054 3055 3057 3060 3061 3061
3065 3061 3057 3054 3050 3047 3043 3041 3038 3036 3035 3035 3034 3034 3034 3033 3032 3032 3032 3032 3032 3032 3032 3033 3034 3035 3036 3037 3038 3039 3040 3042 3044 3045 3046 3049 3049 3050 3051 3052 3052 3052 3052 3053 3053 3055 3056
3061 3057 3052 3049 3044 3042 3038 3036 3035 3033 3031 3032 3032 3032 3031 3031 3032 3032 3032 3031 3031 3031 3031 3032 3033 3034 3035 3037 3038 3038 3038 3041 3043 3044 3045 3047 3048 3049 3050 3049 3049 3048 3048 3048 3049 3050 3051
3057 3051 3047 3042 3037 3035 3032 3030 3029 3028 3028 3027 3028 3028 3029 3029 3030 3030 3030 3030 3031 3031 3032 3031 3032 3034 3035 3036 3036 3036 3038 3039 3040 3042 3042 3045 3046 3048 3047 3046 3046 3044 3039 3040 3042 3043 3047
3051 3047 3043 3038 3034 3029 3026 3024 3024 3024 3024 3024 3024 3025 3025 3026 3026 3028 3028 3029 3030 3030 3031 3032 3033 3034 3036 3035 3035 3036 3038 3039 3040 3040 3041 3043 3045 3046 3046 3045 3044 3037 3036 3036 3036 3038 3041
3046 3042 3038 3035 3031 3027 3024 3021 3020 3020 3020 3020 3020 3021 3021 3021 3023 3024 3025 3026 3028 3029 3030 3031 3032 3034 3034 3035 3037 3038 3039 3039 3039 3040 3040 3042 3043 3044 3045 3044 3038 3034 3034 3035 3035 3037 3039
3041 3038 3035 3032 3029 3025 3022 3019 3017 3017 3017 3018 3017 3017 3017 3018 3018 3019 3021 3023 3024 3026 3028 3029 3030 3031 3032 3034 3036 3036 3036 3036 3037 3037 3037 3039 3041 3044 3043 3044 3037 3033 3032 3034 3036 3037 3038
3037 3034 3031 3028 3026 3023 3019 3016 3014 3013 3013 3014 3014 3014 3014 3014 3014 3014 3016 3017 3018 3021 3022 3025 3027 3028 3030 3031 3033 3033 3033 3032 3033 3032 3033 3036 3038 3039 3041 3040 3033 3031 3032 3034 3036 3038 3034
3032 3030 3027 3024 3022 3018 3015 3014 3012 3010 3009 3010 3009 3009 3009 3010 3010 3010 3010 3011 3012 3015 3017 3020 3023 3022 3024 3027 3028 3028 3027 3027 3028 3028 3028 3031 3034 3034 3037 3037 3032 3027 3029 3032 3031 3030 3031
3029 3026 3023 3020 3017 3014 3012 3011 3010 3008 3006 3005 3005 3004 3003 3004 3006 3004 3006 3006 3007 3009 3010 3012 3014 3015 3018 3020 3021 3022 3022 3022 3022 3024 3024 3027 3026 3027 3029 3027 3025 3025 3026 3027 3028 3029 3029
Wind_Speed
41 35 34 37 42 42 39 36 37 37 31 27 28 30 27 21 18 15 11 11 11 14 19 22 28 26 23 32 45 24 29 27 30 34 34 35 34 34 35 38 39 40 30 36 29 33 28
42 36 36 40 42 41 37 38 38 38 30 28 27 27 23 16 13 10 9 8 9 11 12 14 20 22 24 30 49 26 15 25 34 37 36 33 35 32 27 28 37 33 26 29 32 26 31
40 36 38 42 40 41 39 39 39 38 30 28 26 24 19 13 13 11 9 9 14 10 10 13 15 17 23 27 43 29 26 26 34 36 34 31 32 32 32 29 33 17 26 27 27 32 30
39 36 38 41 38 40 38 37 42 37 32 34 30 24 18 13 14 10 9 7 12 14 8 10 9 15 22 25 39 40 22 24 31 29 28 26 27 27 22 22 21 23 17 19 28 30 31
39 37 39 40 36 37 38 42 44 41 35 36 32 28 26 11 13 8 10 10 12 16 8 8 10 10 9 28 38 40 26 22 28 30 29 26 25 29 26 20 17 21 18 25 14 26 29
39 38 39 41 35 36 39 41 45 46 37 35 32 26 21 12 11 9 9 11 14 12 5 7 7 8 19 33 30 34 34 25 30 32 29 28 26 26 23 25 27 25 26 19 21 20 23
38 37 37 39 34 36 37 42 44 38 35 35 30 22 15 15 10 8 7 9 8 4 4 8 8 10 23 28 34 30 40 31 29 33 37 33 27 31 29 26 13 16 21 14 16 25 23
38 38 36 36 32 34 35 39 36 40 41 35 31 26 16 9 6 6 6 1 4 8 8 12 22 22 26 27 32 26 22 25 41 38 33 32 29 23 20 22 13 15 17 15 15 15 20
36 38 34 34 30 32 33 34 33 41 35 37 35 29 20 12 11 6 5 9 10 11 11 22 22 21 19 23 25 19 19 16 32 36 32 33 23 22 24 21 16 14 15 16 9 14 13
35 35 33 33 29 29 32 29 28 35 30 36 36 43 45 30 25 20 17 18 23 19 8 13 14 14 17 24 24 17 18 11 46 34 30 23 20 22 25 22 18 14 16 13 10 6 7
34 32 31 30 28 26 29 26 23 27 24 32 34 34 36 29 31 25 24 22 17 7 3 5 15 21 21 19 24 19 14 9 26 34 20 15 23 22 23 25 21 12 16 13 9 7 4
33 32 32 26 25 25 27 26 25 23 20 25 30 31 27 19 21 23 19 15 9 7 8 10 16 19 18 15 21 14 13 17 19 17 25 20 23 23 24 28 25 15 16 11 6 5 4
30 31 31 25 24 21 23 25 24 25 26 28 31 28 20 15 13 16 14 14 9 9 6 15 20 15 16 19 21 16 12 12 6 12 17 21 18 12 24 26 26 21 17 4 3 4 2
31 31 28 26 22 20 19 22 23 24 29 29 28 25 19 11 11 14 18 17 14 12 13 19 18 16 18 16 17 12 13 10 10 5 10 7 7 11 13 21 19 26 17 3 4 5 4
31 31 25 26 22 21 18 17 22 22 26 27 24 21 16 7 9 7 10 16 6 11 19 19 14 11 16 9 12 16 16 11 10 9 4 6 5 9 9 10 20 20 11 8 5 2 2
30 30 24 23 23 20 20 19 16 22 22 22 22 21 15 7 7 5 13 15 12 18 21 10 3 7 8 14 12 9 10 12 11 11 7 11 9 11 11 10 9 9 12 5 5 4 4
30 29 24 23 23 21 19 20 18 16 19 19 17 19 18 12 7 2 20 24 22 19 7 1 1 7 11 15 12 11 7 12 10 10 6 11 6 11 13 11 10 11 10 7 7 3 2
28 31 23 22 21 23 24 18 19 16 14 14 15 13 16 10 6 10 15 15 14 7 2 3 3 4 11 16 13 10 9 5 12 10 8 8 6 8 13 11 13 15 11 11 5 5 5
30 32 26 23 23 24 26 23 16 18 13 11 11 9 10 9 2 3 8 12 10 6 2 5 3 5 7 12 6 11 8 5 10 12 8 9 5 7 3 8 15 15 20 20 19 8 7
31 29 26 25 24 27 27 22 15 17 14 8 6 6 5 4 5 4 5 7 6 5 4 2 3 4 6 9 8 10 11 11 9 9 10 8 8 5 5 3 6 12 17 20 19 9 8
28 30 32 31 31 26 26 22 17 15 14 7 3 1 3 3 5 7 6 4 4 6 7 6 7 5 5 5 9 5 15 12 10 7 12 11 7 10 8 7 7 6 8 17 25 23 11
29 33 33 33 33 29 27 22 15 12 13 9 7 5 3 2 2 2 2 3 5 4 4 7 4 7 6 3 4 1 8 15 10 11 10 14 7 10 9 10 13 16 16 17 17 21 28
34 31 32 31 32 31 28 21 15 11 12 12 10 10 9 8 6 3 3 3 4 4 6 7 10 5 3 3 4 4 7 6 5 8 12 14 11 5 3 7 8 14 19 24 24 23 18
33 32 31 30 30 28 24 20 14 9 12 12 9 11 12 13 11 9 7 5 6 4 6 6 6 5 3 4 4 10 7 4 2 2 6 7 9 9 3 3 4 5 5 4 13 20 18
33 30 28 27 26 24 21 18 13 9 10 11 9 8 11 16 16 15 12 11 10 8 7 9 8 6 5 6 7 6 5 5 10 6 7 9 11 3 2 5 11 9 11 6 4 9 14
32 27 25 26 24 25 22 19 13 10 10 11 10 9 8 9 16 17 17 18 15 14 13 11 11 12 10 10 7 6 6 6 7 6 13 13 15 9 4 3 4 4 9 12 7 6 15
26 22 22 24 25 25 22 20 14 10 11 11 11 11 10 10 10 12 15 19 20 20 18 16 15 15 16 15 13 10 8 8 7 8 11 17 15 16 13 8 9 10 8 8 8 9 19
20 21 23 24 25 23 19 15 13 11 13 13 14 14 14 14 14 14 15 16 20 22 23 18 17 21 20 20 15 12 10 14 12 10 11 14 12 12 13 8 9 11 15 10 9 9 15
21 23 24 24 22 20 15 12 12 12 10 13 18 19 19 17 14 17 15 15 17 20 23 25 25 12 17 14 19 11 13 11 17 8 18 12 15 8 12 7 6 6 13 12 8 8 6
Wind_Direction
350 348 346 343 340 341 342 343 344 341 333 328 318 317 316 310 301 299 308 300 289 273 259 250 249 248 240 221 197 210 227 203 198 198 199 204 200 203 206 209 213 212 222 223 227 228 231
349 349 349 346 345 351 350 351 348 340 337 327 321 317 318 313 307 298 305 314 331 311 277 253 247 242 233 220 197 193 200 215 200 198 194 201 202 202 200 209 213 217 218 222 225 227 233
349 350 351 349 352 357 355 352 348 345 353 344 331 327 314 304 310 294 287 341 338 306 287 262 240 218 225 211 197 180 186 201 192 201 193 197 201 199 204 208 210 209 217 223 223 227 234
348 350 352 352 358 358 357 352 356 357 350 340 335 324 311 287 303 291 268 292 328 319 291 253 229 204 230 203 192 192 173 174 190 192 189 195 202 196 204 206 208 205 207 211 226 224 227
347 350 352 354 360 358 358 359 360 2 352 344 338 325 312 291 283 285 265 287 313 312 263 236 221 221 215 184 187 199 178 177 185 179 181 190 193 198 201 192 185 195 211 212 230 227 229
349 351 352 355 358 0 4 4 7 5 359 353 348 340 329 309 281 276 263 275 304 309 244 202 205 185 172 175 173 185 193 186 178 172 175 186 186 187 194 191 200 199 204 208 214 220 226
348 350 354 357 358 4 10 9 10 7 3 356 356 351 342 333 260 283 259 278 318 349 175 171 171 141 156 170 179 178 176 179 173 172 180 184 180 186 193 195 212 191 194 205 222 230 231
347 350 355 360 359 4 15 13 11 10 11 7 5 1 2 7 359 296 261 297 72 116 135 157 155 142 158 168 180 171 180 158 170 176 182 185 198 192 186 191 195 181 186 194 212 223 229
346 348 354 0 360 5 15 13 13 16 25 31 25 20 27 29 21 68 89 114 120 123 139 149 108 136 144 168 186 175 185 173 174 176 186 186 191 185 190 186 184 183 183 190 194 215 237
344 346 353 358 0 5 14 12 16 20 34 42 44 51 47 56 67 78 95 106 108 108 116 115 116 120 147 161 174 176 197 184 166 164 178 174 183 193 191 192 184 176 183 187 199 199 231
348 347 353 357 360 6 10 16 6 22 31 40 37 34 27 34 52 68 67 85 101 75 79 57 66 120 140 148 176 208 165 146 175 193 175 162 185 182 186 192 189 203 207 211 203 221 250
349 347 350 354 358 3 1 14 13 16 14 1 360 6 13 7 31 59 60 57 57 53 35 59 109 127 124 153 165 125 105 118 134 138 166 174 171 176 185 192 192 201 192 189 199 210 235
346 346 348 348 352 360 3 7 15 13 8 359 1 11 18 13 26 76 62 68 60 47 72 79 107 117 136 142 142 168 151 147 131 121 128 132 160 154 167 181 192 198 176 144 188 203 250
348 344 345 346 347 350 358 1 9 13 10 6 6 11 21 34 73 93 69 73 59 66 94 116 106 119 110 138 142 159 171 108 145 132 112 86 101 160 188 181 181 180 173 207 188 187 153
338 340 342 349 341 348 342 354 358 6 12 12 12 6 16 56 56 71 87 81 91 99 120 119 116 112 135 103 123 135 136 130 121 153 149 113 118 126 125 139 155 167 181 186 108 133 240
334 341 339 348 345 341 341 336 346 355 8 12 12 7 12 16 357 45 105 101 116 129 124 119 111 148 159 171 154 127 149 163 148 149 136 148 131 161 162 158 182 174 192 172 198 178 222
329 339 336 342 346 344 336 333 331 337 351 6 9 13 11 14 10 69 108 112 130 136 132 59 216 171 179 176 181 167 138 161 160 164 162 162 141 171 183 199 201 189 186 191 180 192 268
322 333 330 334 335 340 339 329 324 328 332 356 357 6 18 19 40 116 106 127 137 152 116 35 110 168 184 180 175 172 173 157 189 178 174 172 148 149 195 211 213 215 216 205 206 196 215
322 326 327 326 324 327 331 330 312 321 321 334 354 2 17 37 16 109 126 142 152 149 66 34 109 136 155 178 178 202 198 195 180 184 190 186 170 118 171 227 222 224 223 218 219 226 215
320 326 327 326 326 323 324 328 322 306 323 307 340 355 15 35 55 106 146 180 198 232 246 261 157 151 172 184 201 211 210 198 182 201 213 191 187 189 188 179 199 211 224 217 214 204 211
319 324 325 323 322 322 318 325 322 292 312 292 281 278 17 55 96 105 123 125 204 238 232 234 220 210 196 198 205 212 204 203 208 221 208 210 217 220 240 244 234 227 225 221 221 220 210
318 319 322 322 317 318 315 318 321 281 296 298 248 228 225 240 165 126 117 103 84 81 187 197 213 209 196 191 196 250 221 215 222 227 218 227 229 231 257 256 255 256 246 237 234 233 242
327 321 322 320 317 320 317 315 310 281 267 287 253 233 228 227 238 231 205 171 141 81 85 131 131 129 177 195 197 233 149 171 228 227 225 214 222 225 240 248 276 276 255 239 239 240 241
322 320 324 321 321 322 324 322 310 270 251 271 277 242 232 228 226 234 225 221 212 188 167 160 151 150 178 172 153 144 159 199 190 213 201 214 208 210 271 244 233 239 196 204 243 240 231
321 325 324 325 325 327 330 328 317 266 258 259 267 268 245 241 236 234 236 234 228 229 216 208 206 194 192 168 145 147 180 199 210 217 202 202 208 219 246 251 284 245 223 214 185 189 194
318 322 323 327 328 327 329 323 312 276 261 264 261 264 261 258 240 239 240 237 235 233 233 228 219 212 199 204 204 220 213 204 194 215 218 215 216 218 202 256 252 244 220 209 203 175 175
317 316 322 325 325 324 324 321 311 288 258 269 268 267 263 258 253 237 232 235 236 234 236 235 234 227 225 216 222 226 231 209 200 193 199 206 217 222 230 252 274 234 211 205 210 192 192
321 326 325 325 322 324 324 312 295 300 268 258 267 273 269 259 257 249 242 240 238 235 232 234 233 229 225 219 220 227 224 219 221 212 203 193 200 212 216 228 255 216 216 208 217 189 200
328 325 326 327 330 330 327 310 295 298 311 285 261 260 274 268 259 260 252 246 249 248 244 232 228 227 216 214 218 216 223 219 217 220 218 207 207 202 202 226 225 217 225 226 244 226 208